Weather History for Whiteville, NC

Change the Weather History Date:

Wednesday, December 5, 2012

  Actual Average (KLBT) Record (KLBT)
Temperature  
Mean Temperature 64 °F 49 °F  
Max Temperature 73 °F 60 °F 77 °F (1998)
Min Temperature 55 °F 37 °F 21 °F (2000)
Degree Days  
Heating Degree Days 1 16  
Month to date heating degree days 79  
Since 1 July heating degree days 545  
Cooling Degree Days 0 0  
Month to date cooling degree days 0  
Year to date cooling degree days 1907  
Growing Degree Days 14 (Base 50)    
Moisture  
Dew Point 54 °F    
Average Humidity 77    
Maximum Humidity 100    
Minimum Humidity 41    
Precipitation  
Precipitation 0.06 in 0.11 in 0.22 in (2005)
Month to date precipitation 0.54  
Year to date precipitation 41.17  
Sea Level Pressure  
Sea Level Pressure 30.16 in    
Wind  
Wind Speed 4 mph (WSW)    
Max Wind Speed 9 mph    
Max Gust Speed -    
Visibility 10 miles    
Events Rain    
T = Trace of Precipitation, MM = Missing Value Source: NWS Daily Summary

Daily Weather History Graph

Daily Weather History Graph

Search for Another Location

Airport:

Trip Planner

Search our weather history database for the weather conditions in past years. The results will help you decide how hot, cold, wet, or windy it might be!

Date:

Astronomy

Dec. 05, 2012 Rise Set
Actual Time 7:06 AM EST 5:04 PM EST
Civil Twilight 6:38 AM EST 5:32 PM EST
Nautical Twilight 6:07 AM EST 6:03 PM EST
Astronomical Twilight 5:37 AM EST 6:33 PM EST
Moon 11:39 PM EST (12/5) 11:41 AM EST (12/5)
Length of Visible Light 10h 53m
Length of Day
9h 58m
Waning Gibbous, 60% of the Moon is Illuminated
Dec 5
Waning Gibbous
Dec 6
Last Quarter
Dec 13
New
Dec 20
First Quarter
Dec 28
Full

Hourly Weather History & Observations

Time (EST) Temp. Dew Point Humidity Pressure Visibility Wind Dir Wind Speed Gust Speed Precip Events Conditions
12:15 AM 57.2 °F 57.2 °F 100% 30.23 in 10.0 mi SW 4.6 mph - N/A   Clear
12:35 AM 59.0 °F 57.2 °F 94% 30.23 in 10.0 mi SSW 4.6 mph - N/A   Clear
12:55 AM 57.2 °F 55.4 °F 94% 30.22 in 10.0 mi SSW 4.6 mph - N/A   Clear
1:15 AM 57.2 °F 55.4 °F 94% 30.21 in 10.0 mi SSW 3.5 mph - N/A   Clear
1:35 AM 55.4 °F 55.4 °F 100% 30.21 in 10.0 mi SSW 4.6 mph - N/A   Clear
1:55 AM 55.4 °F 55.4 °F 100% 30.21 in 10.0 mi SW 3.5 mph - N/A   Clear
2:15 AM 55.4 °F 55.4 °F 100% 30.21 in 10.0 mi SSW 4.6 mph - N/A   Clear
2:35 AM 55.4 °F 55.4 °F 100% 30.20 in 10.0 mi SSW 4.6 mph - N/A   Clear
2:55 AM 55.4 °F 55.4 °F 100% 30.20 in 10.0 mi SW 3.5 mph - N/A   Clear
3:15 AM 57.2 °F 55.4 °F 94% 30.19 in 10.0 mi Calm Calm - N/A   Clear
3:35 AM 57.2 °F 55.4 °F 94% 30.19 in 10.0 mi SW 4.6 mph - N/A   Scattered Clouds
3:55 AM 57.2 °F 55.4 °F 94% 30.18 in 10.0 mi SW 4.6 mph - N/A   Clear
4:15 AM 57.2 °F 55.4 °F 94% 30.18 in 10.0 mi SW 3.5 mph - N/A   Clear
4:35 AM 57.2 °F 55.4 °F 94% 30.17 in 10.0 mi SW 4.6 mph - N/A   Clear
4:55 AM 57.2 °F 53.6 °F 88% 30.16 in 10.0 mi SW 4.6 mph - N/A   Clear
5:15 AM 59.0 °F 55.4 °F 88% 30.16 in 10.0 mi SW 8.1 mph - N/A   Clear
5:35 AM 59.0 °F 55.4 °F 88% 30.17 in 10.0 mi Calm Calm - N/A   Clear
5:55 AM 57.2 °F 55.4 °F 94% 30.18 in 10.0 mi SW 3.5 mph - N/A   Clear
6:15 AM 55.4 °F 53.6 °F 94% 30.18 in 10.0 mi SW 4.6 mph - N/A   Clear
6:35 AM 55.4 °F 53.6 °F 94% 30.19 in 10.0 mi Calm Calm - N/A   Clear
6:55 AM 55.4 °F 53.6 °F 94% 30.19 in 10.0 mi SW 3.5 mph - N/A   Clear
7:15 AM 55.4 °F 53.6 °F 94% 30.19 in 10.0 mi SW 3.5 mph - N/A   Clear
7:35 AM 55.4 °F 53.6 °F 94% 30.20 in 10.0 mi SSW 4.6 mph - N/A   Clear
7:55 AM 55.4 °F 53.6 °F 94% 30.20 in 10.0 mi SW 3.5 mph - N/A   Clear
9:35 AM 62.6 °F 55.4 °F 77% 30.21 in 10.0 mi WSW 3.5 mph - N/A   Clear
9:55 AM 64.4 °F 55.4 °F 73% 30.21 in 10.0 mi SW 4.6 mph - N/A   Clear
10:15 AM 66.2 °F 55.4 °F 68% 30.21 in 10.0 mi WSW 4.6 mph - N/A   Clear
10:35 AM 69.8 °F 55.4 °F 60% 30.20 in 10.0 mi SW 8.1 mph - N/A   Clear
10:55 AM 68.0 °F 53.6 °F 60% 30.19 in 10.0 mi WSW 4.6 mph - N/A   Clear
11:15 AM 69.8 °F 53.6 °F 56% 30.19 in 10.0 mi WSW 8.1 mph - N/A   Clear
11:35 AM 71.6 °F 51.8 °F 50% 30.17 in 10.0 mi WSW 5.8 mph - N/A   Clear
11:55 AM 69.8 °F 50.0 °F 49% 30.16 in 10.0 mi West 4.6 mph - N/A   Clear
12:15 PM 71.6 °F 51.8 °F 50% 30.15 in 10.0 mi West 6.9 mph - N/A   Clear
12:35 PM 73.4 °F 48.2 °F 41% 30.14 in 10.0 mi WSW 8.1 mph - N/A   Clear
12:55 PM 71.6 °F 50.0 °F 46% 30.13 in 10.0 mi West 6.9 mph - N/A   Clear
1:15 PM 71.6 °F 50.0 °F 46% 30.12 in 10.0 mi West 6.9 mph - N/A   Clear
1:35 PM 71.6 °F 50.0 °F 46% 30.11 in 10.0 mi WSW 5.8 mph - N/A   Scattered Clouds
1:55 PM 71.6 °F 50.0 °F 46% 30.11 in 10.0 mi SW 5.8 mph - N/A   Scattered Clouds
2:15 PM 71.6 °F 50.0 °F 46% 30.10 in 10.0 mi SW 4.6 mph - N/A   Scattered Clouds
2:35 PM 71.6 °F 50.0 °F 46% 30.10 in 10.0 mi SW 6.9 mph - N/A   Clear
2:55 PM 73.4 °F 50.0 °F 44% 30.10 in 10.0 mi WSW 3.5 mph - N/A   Clear
3:15 PM 71.6 °F 50.0 °F 46% 30.10 in 10.0 mi West 4.6 mph - N/A   Clear
3:35 PM 71.6 °F 51.8 °F 50% 30.10 in 10.0 mi Calm Calm - N/A   Scattered Clouds
3:55 PM 71.6 °F 51.8 °F 50% 30.10 in 10.0 mi Calm Calm - N/A   Mostly Cloudy
4:15 PM 69.8 °F 51.8 °F 53% 30.10 in 10.0 mi Calm Calm - N/A   Scattered Clouds
4:35 PM 69.8 °F 51.8 °F 53% 30.10 in 10.0 mi Calm Calm - N/A   Scattered Clouds
4:55 PM 68.0 °F 51.8 °F 56% 30.10 in 10.0 mi Calm Calm - N/A   Mostly Cloudy
5:15 PM 66.2 °F 53.6 °F 64% 30.10 in 10.0 mi Calm Calm - N/A   Scattered Clouds
5:35 PM 64.4 °F 53.6 °F 68% 30.11 in 10.0 mi Calm Calm - N/A   Mostly Cloudy
5:55 PM 64.4 °F 53.6 °F 68% 30.11 in 10.0 mi Calm Calm - N/A   Overcast
6:15 PM 64.4 °F 53.6 °F 68% 30.12 in 10.0 mi Calm Calm - N/A   Mostly Cloudy
6:35 PM 64.4 °F 53.6 °F 68% 30.12 in 10.0 mi Calm Calm - N/A   Mostly Cloudy
6:55 PM 64.4 °F 55.4 °F 73% 30.13 in 10.0 mi Calm Calm - N/A   Overcast
7:15 PM 64.4 °F 57.2 °F 77% 30.13 in 10.0 mi NNW 3.5 mph - N/A   Overcast
7:35 PM 64.4 °F 59.0 °F 83% 30.14 in 10.0 mi North 3.5 mph - N/A   Overcast
7:55 PM 62.6 °F 57.2 °F 82% 30.14 in 10.0 mi North 8.1 mph - N/A   Mostly Cloudy
8:15 PM 62.6 °F 57.2 °F 82% 30.15 in 10.0 mi North 5.8 mph - N/A   Mostly Cloudy
8:35 PM 60.8 °F 57.2 °F 88% 30.15 in 10.0 mi North 8.1 mph - N/A   Mostly Cloudy
8:55 PM 60.8 °F 57.2 °F 88% 30.16 in 10.0 mi NNE 5.8 mph - N/A   Overcast
9:15 PM 60.8 °F 57.2 °F 88% 30.16 in 10.0 mi North 6.9 mph - N/A   Overcast
9:35 PM 59.0 °F 57.2 °F 94% 30.16 in 10.0 mi NNE 6.9 mph - N/A   Overcast
9:55 PM 59.0 °F 57.2 °F 94% 30.17 in 7.0 mi NNE 5.8 mph - N/A   Overcast
10:15 PM 59.0 °F 57.2 °F 94% 30.17 in 7.0 mi NNE 4.6 mph - N/A   Overcast
10:35 PM 59.0 °F 55.4 °F 88% 30.17 in 5.0 mi NE 9.2 mph - N/A   Heavy Drizzle
10:55 PM 57.2 °F 55.4 °F 94% 30.18 in 4.0 mi NNE 5.8 mph - 0.02 in Rain Rain
11:15 PM 55.4 °F 55.4 °F 100% 30.18 in 4.0 mi NNE 6.9 mph - 0.03 in Rain Rain
11:35 PM 55.4 °F 53.6 °F 94% 30.18 in 7.0 mi NE 6.9 mph - 0.04 in Rain Rain
11:55 PM 55.4 °F 53.6 °F 94% 30.18 in 5.0 mi NNE 4.6 mph - 0.04 in Rain Rain